VLG8TX LEBL-LFPG

Flight info

Callsign VLG8TX
Flight time 1h 20m
Altitude 30000
Route OLOXO DCT OKABI/N0423F340 DCT TOU DCT POI/N0413F300 DCT PEPAX UT182 KEPER
Aircraft A320/M-SDE3FGHIRWY/LB1

Departure

Time 2026-05-09 09:48
Airport Josep Tarradellas Barcelona-El Prat Airport (LEBL)

Arrival

Time 2026-05-09 11:08
Airport Charles de Gaulle International Airport (LFPG)
Time Latitude Longitude Altitude Speed Heading
2026-05-09 09:20 41.29095 2.07799 20 ft 0 kts 155°
2026-05-09 09:37 41.29110 2.07789 19 ft 4 kts 155°
2026-05-09 09:37 41.29135 2.07774 20 ft 4 kts 152°
2026-05-09 09:37 41.29157 2.07756 19 ft 4 kts 132°
2026-05-09 09:38 41.29166 2.07732 21 ft 2 kts 65°
2026-05-09 09:38 41.29156 2.07703 20 ft 4 kts 68°
2026-05-09 09:38 41.29151 2.07685 21 ft 0 kts 66°
2026-05-09 09:41 41.29151 2.07686 21 ft 0 kts 66°
2026-05-09 09:41 41.29160 2.07714 19 ft 7 kts 66°
2026-05-09 09:41 41.29194 2.07813 21 ft 16 kts 65°
2026-05-09 09:41 41.29241 2.07950 19 ft 17 kts 65°
2026-05-09 09:42 41.29288 2.08087 19 ft 16 kts 65°
2026-05-09 09:42 41.29335 2.08224 21 ft 17 kts 65°
2026-05-09 09:42 41.29368 2.08344 19 ft 14 kts 97°
2026-05-09 09:42 41.29291 2.08423 21 ft 15 kts 154°
2026-05-09 09:43 41.29186 2.08439 20 ft 17 kts 197°
2026-05-09 09:43 41.29063 2.08383 19 ft 20 kts 199°
2026-05-09 09:43 41.28929 2.08323 18 ft 20 kts 199°
2026-05-09 09:43 41.28797 2.08262 16 ft 17 kts 199°
2026-05-09 09:44 41.28695 2.08210 18 ft 14 kts 215°
2026-05-09 09:44 41.28645 2.08095 17 ft 16 kts 245°
2026-05-09 09:44 41.28584 2.07919 16 ft 25 kts 245°
2026-05-09 09:44 41.28522 2.07738 17 ft 17 kts 245°
2026-05-09 09:45 41.28477 2.07604 17 ft 13 kts 245°
2026-05-09 09:45 41.28434 2.07490 18 ft 15 kts 231°
2026-05-09 09:45 41.28366 2.07442 19 ft 2 kts 199°
2026-05-09 09:45 41.28359 2.07438 17 ft 0 kts 200°
2026-05-09 09:46 41.28321 2.07420 18 ft 15 kts 200°
2026-05-09 09:46 41.28246 2.07428 19 ft 9 kts 134°
2026-05-09 09:46 41.28247 2.07480 19 ft 0 kts 62°
2026-05-09 09:47 41.28248 2.07484 19 ft 2 kts 63°
2026-05-09 09:48 41.28327 2.07710 22 ft 62 kts 65°
2026-05-09 09:48 41.28594 2.08491 23 ft 120 kts 65°
2026-05-09 09:48 41.28995 2.09645 282 ft 144 kts 65°
2026-05-09 09:48 41.29307 2.10906 985 ft 146 kts 85°
2026-05-09 09:49 41.29205 2.12306 1515 ft 161 kts 96°
2026-05-09 09:49 41.29041 2.13852 1938 ft 176 kts 96°
2026-05-09 09:49 41.28879 2.15533 2398 ft 192 kts 95°
2026-05-09 09:49 41.28711 2.17350 3081 ft 202 kts 95°
2026-05-09 09:50 41.28572 2.19224 3874 ft 209 kts 85°
2026-05-09 09:50 41.29085 2.21082 4524 ft 228 kts 54°
2026-05-09 09:50 41.30410 2.22387 5181 ft 252 kts 22°
2026-05-09 09:50 41.32201 2.22542 5852 ft 276 kts 353°
2026-05-09 09:51 41.34091 2.21798 6631 ft 289 kts 340°
2026-05-09 09:51 41.35940 2.20699 7512 ft 293 kts 335°
2026-05-09 09:51 41.37771 2.19490 8407 ft 297 kts 334°
2026-05-09 09:51 41.39628 2.18266 9309 ft 300 kts 334°
2026-05-09 09:52 41.41530 2.17067 10109 ft 306 kts 334°
2026-05-09 09:52 41.43540 2.15855 10465 ft 328 kts 335°
2026-05-09 09:52 41.45697 2.14603 10864 ft 345 kts 336°
2026-05-09 09:52 41.47924 2.13347 11527 ft 352 kts 336°
2026-05-09 09:53 41.50202 2.12076 12236 ft 357 kts 336°
2026-05-09 09:53 41.52522 2.10784 12954 ft 362 kts 336°
2026-05-09 09:53 41.54857 2.09480 13689 ft 366 kts 336°
2026-05-09 09:53 41.57215 2.08159 14391 ft 368 kts 336°
2026-05-09 09:54 41.59586 2.06828 15026 ft 372 kts 336°
2026-05-09 09:54 41.61983 2.05483 15648 ft 376 kts 335°
2026-05-09 09:54 41.64411 2.04118 16278 ft 379 kts 336°
2026-05-09 09:54 41.66853 2.02739 16921 ft 382 kts 336°
2026-05-09 09:55 41.69311 2.01347 17584 ft 385 kts 336°
2026-05-09 09:55 41.71791 1.99941 18202 ft 389 kts 336°
2026-05-09 09:55 41.74299 1.98522 18738 ft 393 kts 335°
2026-05-09 09:55 41.76833 1.97089 19309 ft 397 kts 335°
2026-05-09 09:56 41.79388 1.95640 19879 ft 400 kts 335°
2026-05-09 09:56 41.81932 1.94198 20427 ft 404 kts 335°
2026-05-09 09:56 41.84528 1.92723 20959 ft 407 kts 334°
2026-05-09 09:56 41.87148 1.91230 21468 ft 411 kts 334°
2026-05-09 09:57 41.89792 1.89724 21985 ft 415 kts 334°
2026-05-09 09:57 41.92459 1.88206 22493 ft 418 kts 334°
2026-05-09 09:57 41.95150 1.86675 22998 ft 422 kts 333°
2026-05-09 09:57 41.97868 1.85129 23497 ft 425 kts 334°
2026-05-09 09:58 42.00605 1.83570 23917 ft 429 kts 334°
2026-05-09 09:58 42.03367 1.81990 24310 ft 433 kts 334°
2026-05-09 09:58 42.06150 1.80397 24701 ft 436 kts 333°
2026-05-09 09:58 42.08954 1.78791 25108 ft 440 kts 333°
2026-05-09 09:59 42.11783 1.77172 25506 ft 444 kts 333°
2026-05-09 09:59 42.14633 1.75539 25901 ft 447 kts 333°
2026-05-09 09:59 42.17505 1.73890 26301 ft 451 kts 333°
2026-05-09 09:59 42.20400 1.72221 26737 ft 454 kts 333°
2026-05-09 10:00 42.23319 1.70541 27149 ft 457 kts 332°
2026-05-09 10:00 42.26250 1.68855 27549 ft 460 kts 332°
2026-05-09 10:00 42.29201 1.67158 27941 ft 463 kts 332°
2026-05-09 10:00 42.32178 1.65443 28276 ft 466 kts 332°
2026-05-09 10:01 42.35170 1.63716 28664 ft 469 kts 332°
2026-05-09 10:01 42.38184 1.61971 29054 ft 473 kts 332°
2026-05-09 10:01 42.41217 1.60213 29498 ft 475 kts 331°
2026-05-09 10:01 42.44258 1.58450 29916 ft 476 kts 331°
2026-05-09 10:02 42.47290 1.56695 30003 ft 468 kts 331°
2026-05-09 10:02 42.53138 1.53316 29999 ft 456 kts 330°
2026-05-09 10:03 42.59008 1.49890 29984 ft 458 kts 331°
2026-05-09 10:03 42.65210 1.47767 29972 ft 470 kts 348°
2026-05-09 10:04 42.71699 1.46745 29949 ft 469 kts 348°
2026-05-09 10:04 42.78179 1.45699 29935 ft 468 kts 348°
2026-05-09 10:05 42.84653 1.44656 29926 ft 467 kts 348°
2026-05-09 10:05 42.91127 1.43609 29945 ft 469 kts 348°
2026-05-09 10:06 42.97608 1.42562 29947 ft 469 kts 347°
2026-05-09 10:06 43.04097 1.41504 29953 ft 469 kts 347°
2026-05-09 10:07 43.10561 1.40447 29963 ft 467 kts 347°
2026-05-09 10:07 43.17008 1.39390 29959 ft 465 kts 347°
2026-05-09 10:08 43.23432 1.38342 29963 ft 465 kts 348°
2026-05-09 10:08 43.28761 1.37473 29969 ft 464 kts 348°
2026-05-09 10:09 43.36210 1.36250 29965 ft 463 kts 348°
2026-05-09 10:09 43.42596 1.35199 29974 ft 462 kts 348°
2026-05-09 10:10 43.47945 1.34318 29973 ft 461 kts 348°
2026-05-09 10:10 43.54307 1.33273 29971 ft 460 kts 348°
2026-05-09 10:11 43.60655 1.32228 29998 ft 459 kts 348°
2026-05-09 10:11 43.66994 1.31171 29996 ft 458 kts 347°
2026-05-09 10:12 43.73157 1.29289 29986 ft 453 kts 340°
2026-05-09 10:12 43.79246 1.27266 29977 ft 453 kts 340°
2026-05-09 10:13 43.85378 1.25244 29985 ft 453 kts 340°
2026-05-09 10:13 43.91510 1.23207 29965 ft 453 kts 340°
2026-05-09 10:14 43.97646 1.21150 29953 ft 454 kts 340°
2026-05-09 10:14 44.03787 1.19091 29966 ft 454 kts 341°
2026-05-09 10:15 44.09940 1.17025 29950 ft 455 kts 341°
2026-05-09 10:15 44.16057 1.14967 29947 ft 455 kts 341°
2026-05-09 10:16 44.22221 1.12887 29984 ft 456 kts 340°
2026-05-09 10:16 44.28393 1.10808 29978 ft 456 kts 340°
2026-05-09 10:17 44.34563 1.08724 29974 ft 456 kts 340°
2026-05-09 10:17 44.40734 1.06631 29973 ft 456 kts 340°
2026-05-09 10:18 44.46903 1.04530 29978 ft 455 kts 341°
2026-05-09 10:18 44.53051 1.02429 29979 ft 455 kts 341°
2026-05-09 10:19 44.59160 1.00340 29981 ft 455 kts 341°
2026-05-09 10:19 44.65308 0.98237 29985 ft 455 kts 340°
2026-05-09 10:20 44.71463 0.96138 29985 ft 454 kts 341°
2026-05-09 10:20 44.77600 0.94031 29986 ft 453 kts 340°
2026-05-09 10:21 44.83728 0.91908 29985 ft 453 kts 340°
2026-05-09 10:21 44.89855 0.89798 29977 ft 453 kts 340°
2026-05-09 10:22 44.95936 0.87700 29976 ft 453 kts 340°
2026-05-09 10:22 45.02057 0.85570 29999 ft 453 kts 340°
2026-05-09 10:23 45.08173 0.83451 29996 ft 452 kts 340°
2026-05-09 10:23 45.14277 0.81332 29999 ft 451 kts 340°
2026-05-09 10:24 45.20375 0.79199 30003 ft 451 kts 339°
2026-05-09 10:24 45.26467 0.77062 30021 ft 450 kts 339°
2026-05-09 10:25 45.32545 0.74929 29987 ft 451 kts 339°
2026-05-09 10:25 45.38634 0.72792 29979 ft 451 kts 339°
2026-05-09 10:26 45.44727 0.70647 29979 ft 451 kts 339°
2026-05-09 10:26 45.50820 0.68500 29978 ft 451 kts 339°
2026-05-09 10:27 45.56918 0.66345 29973 ft 451 kts 339°
2026-05-09 10:27 45.62965 0.64195 29989 ft 450 kts 339°
2026-05-09 10:28 45.69040 0.62028 29983 ft 449 kts 339°
2026-05-09 10:28 45.75102 0.59870 29986 ft 448 kts 339°
2026-05-09 10:29 45.81154 0.57715 29991 ft 448 kts 338°
2026-05-09 10:29 45.87193 0.55557 29989 ft 447 kts 338°
2026-05-09 10:30 45.93226 0.53389 29986 ft 446 kts 338°
2026-05-09 10:30 45.99246 0.51224 29995 ft 446 kts 338°
2026-05-09 10:31 46.05266 0.49060 29993 ft 445 kts 338°
2026-05-09 10:31 46.11274 0.46897 29992 ft 445 kts 338°
2026-05-09 10:32 46.17279 0.44723 29993 ft 444 kts 338°
2026-05-09 10:32 46.23274 0.42551 29988 ft 444 kts 338°
2026-05-09 10:33 46.29268 0.40377 29986 ft 444 kts 338°
2026-05-09 10:33 46.35258 0.38197 29981 ft 444 kts 338°
2026-05-09 10:34 46.41219 0.36013 29980 ft 445 kts 338°
2026-05-09 10:34 46.50221 0.32708 29984 ft 445 kts 338°
2026-05-09 10:35 46.56281 0.30761 29982 ft 452 kts 347°
2026-05-09 10:35 46.62662 0.31192 29997 ft 468 kts
2026-05-09 10:36 46.69024 0.33162 29976 ft 468 kts
2026-05-09 10:36 46.75400 0.35120 29990 ft 467 kts
2026-05-09 10:37 46.81764 0.37075 29987 ft 467 kts
2026-05-09 10:37 46.88128 0.39043 29969 ft 467 kts
2026-05-09 10:38 46.94491 0.41003 29943 ft 467 kts
2026-05-09 10:38 47.00850 0.42976 29958 ft 467 kts
2026-05-09 10:39 47.07171 0.44622 29960 ft 460 kts 356°
2026-05-09 10:39 47.13428 0.43956 29961 ft 446 kts 342°
2026-05-09 10:40 47.19551 0.42459 29980 ft 446 kts 343°
2026-05-09 10:40 47.25675 0.40975 30014 ft 446 kts 343°
2026-05-09 10:41 47.31816 0.39488 29972 ft 448 kts 343°
2026-05-09 10:41 47.37975 0.37984 29963 ft 449 kts 343°
2026-05-09 10:42 47.44133 0.36466 29987 ft 449 kts 343°
2026-05-09 10:42 47.50290 0.34954 29995 ft 448 kts 343°
2026-05-09 10:43 47.56403 0.33429 29981 ft 448 kts 342°
2026-05-09 10:43 47.62542 0.31901 29996 ft 448 kts 343°
2026-05-09 10:44 47.68679 0.30378 29990 ft 447 kts 343°
2026-05-09 10:44 47.74952 0.28846 29966 ft 467 kts 347°
2026-05-09 10:45 47.78228 0.28755 29426 ft 475 kts
2026-05-09 10:46 47.89980 0.37196 27172 ft 468 kts 34°
2026-05-09 10:46 47.92631 0.39973 26620 ft 463 kts 34°
2026-05-09 10:46 47.95254 0.42716 26162 ft 456 kts 34°
2026-05-09 10:46 47.97814 0.45394 26013 ft 442 kts 34°
2026-05-09 10:47 48.00311 0.48008 25690 ft 435 kts 34°
2026-05-09 10:47 48.02775 0.50592 25328 ft 430 kts 34°
2026-05-09 10:47 48.05203 0.53147 24971 ft 424 kts 35°
2026-05-09 10:47 48.07603 0.55679 24592 ft 420 kts 35°
2026-05-09 10:48 48.09979 0.58186 24196 ft 416 kts 35°
2026-05-09 10:48 48.12305 0.60645 23800 ft 413 kts 35°
2026-05-09 10:48 48.14640 0.63119 23407 ft 408 kts 35°
2026-05-09 10:48 48.16974 0.65592 22975 ft 404 kts 35°
2026-05-09 10:49 48.19227 0.67978 22666 ft 399 kts 35°
2026-05-09 10:49 48.21484 0.70370 22351 ft 397 kts 35°
2026-05-09 10:49 48.23730 0.72751 22061 ft 393 kts 36°
2026-05-09 10:49 48.25954 0.75114 21757 ft 390 kts 36°
2026-05-09 10:50 48.28154 0.77458 21449 ft 387 kts 36°
2026-05-09 10:50 48.30346 0.79799 21152 ft 385 kts 36°
2026-05-09 10:50 48.32464 0.82232 20853 ft 382 kts 42°
2026-05-09 10:50 48.34332 0.85061 20558 ft 379 kts 51°
2026-05-09 10:51 48.35902 0.88217 20264 ft 376 kts 59°
2026-05-09 10:51 48.37180 0.91638 19979 ft 374 kts 64°
2026-05-09 10:51 48.38366 0.95062 19685 ft 372 kts 64°
2026-05-09 10:51 48.39557 0.98509 19398 ft 370 kts 64°
2026-05-09 10:52 48.40743 1.01941 19114 ft 369 kts 64°
2026-05-09 10:52 48.41925 1.05358 18794 ft 367 kts 64°
2026-05-09 10:52 48.43098 1.08754 18434 ft 364 kts 64°
2026-05-09 10:52 48.44259 1.12128 18105 ft 361 kts 64°
2026-05-09 10:53 48.45412 1.15483 17749 ft 359 kts 64°
2026-05-09 10:53 48.46556 1.18813 17373 ft 357 kts 64°
2026-05-09 10:53 48.47693 1.22122 17010 ft 355 kts 64°
2026-05-09 10:53 48.48823 1.25420 16646 ft 353 kts 64°
2026-05-09 10:54 48.49942 1.28696 16284 ft 350 kts 64°
2026-05-09 10:54 48.51050 1.31950 15919 ft 348 kts 64°
2026-05-09 10:54 48.52140 1.35149 15573 ft 346 kts 64°
2026-05-09 10:54 48.53241 1.38366 15223 ft 344 kts 64°
2026-05-09 10:55 48.54338 1.41564 14876 ft 342 kts 64°
2026-05-09 10:55 48.55428 1.44741 14538 ft 340 kts 64°
2026-05-09 10:55 48.56513 1.47897 14203 ft 338 kts 63°
2026-05-09 10:55 48.57767 1.50890 13871 ft 337 kts 54°
2026-05-09 10:56 48.59305 1.53548 13503 ft 336 kts 47°
2026-05-09 10:56 48.60917 1.56088 13126 ft 333 kts 47°
2026-05-09 10:56 48.62512 1.58616 12758 ft 331 kts 47°
2026-05-09 10:56 48.64094 1.61134 12397 ft 329 kts 47°
2026-05-09 10:57 48.65139 1.62799 12160 ft 328 kts 47°
2026-05-09 10:57 48.66706 1.65295 11803 ft 326 kts 47°
2026-05-09 10:57 48.68263 1.67780 11451 ft 325 kts 47°
2026-05-09 10:57 48.70313 1.71055 10988 ft 322 kts 47°
2026-05-09 10:58 48.71848 1.73514 10671 ft 321 kts 47°
2026-05-09 10:58 48.72884 1.75175 10475 ft 320 kts 47°
2026-05-09 10:58 48.74405 1.77615 10179 ft 318 kts 47°
2026-05-09 10:58 48.75921 1.80045 9889 ft 316 kts 47°
2026-05-09 10:59 48.77418 1.82448 9562 ft 312 kts 47°
2026-05-09 10:59 48.78901 1.84832 9255 ft 308 kts 47°
2026-05-09 10:59 48.80362 1.87179 8943 ft 305 kts 47°
2026-05-09 10:59 48.81812 1.89506 8649 ft 301 kts 47°
2026-05-09 11:00 48.83244 1.91807 8347 ft 298 kts 47°
2026-05-09 11:00 48.84643 1.94061 8039 ft 296 kts 47°
2026-05-09 11:00 48.86045 1.96326 7738 ft 293 kts 48°
2026-05-09 11:00 48.87437 1.98575 7432 ft 291 kts 48°
2026-05-09 11:01 48.88820 2.00808 7142 ft 288 kts 48°
2026-05-09 11:01 48.90185 2.03010 6848 ft 285 kts 48°
2026-05-09 11:01 48.91533 2.05192 6557 ft 282 kts 48°
2026-05-09 11:01 48.92869 2.07361 6263 ft 279 kts 49°
2026-05-09 11:02 48.94191 2.09509 5949 ft 277 kts 49°
2026-05-09 11:02 48.95501 2.11635 5645 ft 274 kts 48°
2026-05-09 11:02 48.96662 2.13896 5340 ft 269 kts 66°
2026-05-09 11:02 48.97097 2.16606 5054 ft 262 kts 87°
2026-05-09 11:03 48.97234 2.19329 4961 ft 253 kts 87°
2026-05-09 11:03 48.97374 2.21971 4746 ft 249 kts 86°
2026-05-09 11:03 48.97522 2.24593 4435 ft 248 kts 86°
2026-05-09 11:03 48.97669 2.27171 4109 ft 239 kts 86°
2026-05-09 11:04 48.97809 2.29643 3799 ft 230 kts 86°
2026-05-09 11:04 48.97942 2.32015 3499 ft 220 kts 87°
2026-05-09 11:04 48.98070 2.34289 3217 ft 210 kts 86°
2026-05-09 11:04 48.98190 2.36454 2936 ft 201 kts 86°
2026-05-09 11:05 48.98305 2.38528 2699 ft 191 kts 85°
2026-05-09 11:05 48.98413 2.40481 2442 ft 180 kts 86°
2026-05-09 11:05 48.98514 2.42317 2196 ft 166 kts 86°
2026-05-09 11:05 48.98605 2.43989 1917 ft 151 kts 84°
2026-05-09 11:06 48.98693 2.45519 1643 ft 141 kts 84°
2026-05-09 11:06 48.98776 2.46936 1533 ft 132 kts 84°
2026-05-09 11:06 48.98864 2.48325 1332 ft 132 kts 85°
2026-05-09 11:06 48.98937 2.49695 1226 ft 130 kts 86°
2026-05-09 11:07 48.98998 2.51055 1029 ft 128 kts 87°
2026-05-09 11:07 48.99082 2.52414 893 ft 129 kts 85°
2026-05-09 11:07 48.99144 2.53773 741 ft 128 kts 86°
2026-05-09 11:07 48.99221 2.55122 539 ft 128 kts 88°
2026-05-09 11:08 48.99288 2.56474 403 ft 128 kts 86°
2026-05-09 11:08 48.99355 2.57709 361 ft 104 kts 86°
2026-05-09 11:08 48.99397 2.58572 353 ft 65 kts 85°
2026-05-09 11:08 48.99431 2.59090 357 ft 35 kts 78°
2026-05-09 11:09 48.99496 2.59351 356 ft 19 kts 66°
2026-05-09 11:09 48.99544 2.59516 360 ft 12 kts 65°
2026-05-09 11:09 48.99577 2.59621 359 ft 12 kts 63°
2026-05-09 11:09 48.99592 2.59657 362 ft 0 kts 53°
2026-05-09 11:11 48.99606 2.59677 357 ft 6 kts 36°
2026-05-09 11:11 48.99660 2.59690 359 ft 11 kts 357°
2026-05-09 11:12 48.99746 2.59679 358 ft 14 kts 355°
2026-05-09 11:12 48.99858 2.59666 354 ft 17 kts 356°
2026-05-09 11:12 48.99988 2.59652 354 ft 19 kts 356°
2026-05-09 11:12 49.00075 2.59577 356 ft 16 kts 282°
2026-05-09 11:13 49.00069 2.59390 354 ft 19 kts 265°
2026-05-09 11:13 49.00058 2.59175 359 ft 22 kts 265°
2026-05-09 11:13 49.00044 2.58930 357 ft 25 kts 265°
2026-05-09 11:13 49.00028 2.58655 354 ft 27 kts 266°
2026-05-09 11:14 49.00014 2.58366 354 ft 28 kts 265°
2026-05-09 11:14 48.99998 2.58064 354 ft 30 kts 265°
2026-05-09 11:14 48.99981 2.57733 354 ft 33 kts 265°
2026-05-09 11:14 48.99963 2.57400 354 ft 31 kts 265°
2026-05-09 11:15 48.99943 2.57057 361 ft 34 kts 265°
2026-05-09 11:15 48.99923 2.56684 354 ft 37 kts 265°
2026-05-09 11:15 48.99903 2.56289 354 ft 38 kts 265°
2026-05-09 11:15 48.99892 2.55943 354 ft 30 kts 278°
2026-05-09 11:16 48.99948 2.55711 361 ft 23 kts 314°
2026-05-09 11:16 49.00104 2.55621 355 ft 26 kts 345°
2026-05-09 11:16 49.00285 2.55541 354 ft 29 kts 344°
2026-05-09 11:16 49.00486 2.55454 359 ft 31 kts 344°
2026-05-09 11:17 49.00706 2.55362 358 ft 34 kts 344°
2026-05-09 11:17 49.00921 2.55265 362 ft 26 kts 343°
2026-05-09 11:17 49.01096 2.55187 361 ft 24 kts 344°
2026-05-09 11:17 49.01243 2.55219 357 ft 23 kts 61°
2026-05-09 11:18 49.01257 2.55390 357 ft 16 kts 85°
2026-05-09 11:18 49.01265 2.55561 355 ft 13 kts 85°
2026-05-09 11:18 49.01323 2.55606 355 ft 9 kts 354°
2026-05-09 11:18 49.01353 2.55601 355 ft 0 kts 354°